TimeEDT,TemperatureF,Dew PointF,Humidity,Sea Level PressureIn,VisibilityMPH,Wind Direction,Wind SpeedMPH,Gust SpeedMPH,PrecipitationIn,Events,Conditions,WindDirDegrees,DateUTC
12:51 AM,41.0,28.0,60,30.15,10.0,NW,3.5,-,N/A,,Clear,310,2012-10-24 04:51:00
1:51 AM,41.0,30.0,65,30.15,10.0,Calm,Calm,-,N/A,,Clear,0,2012-10-24 05:51:00
2:51 AM,37.9,28.9,70,30.16,10.0,Calm,Calm,-,N/A,,Clear,0,2012-10-24 06:51:00
3:51 AM,37.0,30.0,76,30.16,10.0,Calm,Calm,-,N/A,,Clear,0,2012-10-24 07:51:00
4:51 AM,35.1,30.9,85,30.18,10.0,Calm,Calm,-,N/A,,Clear,0,2012-10-24 08:51:00
5:51 AM,35.1,30.0,82,30.18,10.0,Calm,Calm,-,N/A,,Clear,0,2012-10-24 09:51:00
6:51 AM,33.1,28.9,85,30.19,10.0,WNW,3.5,-,N/A,,Clear,290,2012-10-24 10:51:00
7:51 AM,34.0,30.0,85,30.21,10.0,WNW,3.5,-,N/A,,Clear,290,2012-10-24 11:51:00
8:51 AM,42.1,33.1,70,30.21,10.0,Calm,Calm,-,N/A,,Clear,0,2012-10-24 12:51:00
9:51 AM,48.9,35.1,59,30.22,10.0,Calm,Calm,-,N/A,,Clear,0,2012-10-24 13:51:00
10:51 AM,53.1,30.9,43,30.19,10.0,SW,4.6,-,N/A,,Clear,230,2012-10-24 14:51:00
11:51 AM,55.9,30.9,39,30.18,10.0,WSW,5.8,-,N/A,,Clear,250,2012-10-24 15:51:00
12:51 PM,57.9,30.9,36,30.15,10.0,West,3.5,-,N/A,,Clear,270,2012-10-24 16:51:00
1:51 PM,60.1,30.9,33,30.14,10.0,WNW,3.5,-,N/A,,Clear,300,2012-10-24 17:51:00
2:51 PM,55.0,36.0,49,30.13,10.0,SSW,6.9,-,N/A,,Clear,210,2012-10-24 18:51:00
3:51 PM,54.0,37.9,55,30.13,10.0,SSW,6.9,-,N/A,,Clear,210,2012-10-24 19:51:00
4:51 PM,53.1,39.9,61,30.14,10.0,South,6.9,-,N/A,,Clear,190,2012-10-24 20:51:00
5:51 PM,51.1,41.0,68,30.16,10.0,SSW,3.5,-,N/A,,Clear,200,2012-10-24 21:51:00
6:51 PM,48.0,39.9,74,30.17,10.0,Calm,Calm,-,N/A,,Clear,0,2012-10-24 22:51:00
7:51 PM,46.0,39.0,76,30.18,10.0,WSW,3.5,-,N/A,,Partly Cloudy,250,2012-10-24 23:51:00
8:51 PM,43.0,37.9,82,30.19,10.0,Calm,Calm,-,N/A,,Clear,0,2012-10-25 00:51:00
9:51 PM,45.0,39.9,82,30.20,10.0,Calm,Calm,-,N/A,,Clear,0,2012-10-25 01:51:00
10:51 PM,43.0,39.0,86,30.20,10.0,Calm,Calm,-,N/A,,Clear,0,2012-10-25 02:51:00
11:51 PM,44.1,39.9,85,30.22,10.0,Calm,Calm,-,N/A,,Overcast,0,2012-10-25 03:51:00